COSMOS 249 DEB, 18551

Orbit data source: Space-Track

COSMOS 249 DEB, 18551 is space debris in LEO originally from a launch on Sun, 20 Oct 1968 UTC launched from the Tyuratam Missile And Space Complex (TTMTR). Debris objects in space refer to the collection of defunct objects orbiting the Earth. Examples of debris include non-operational satellites, rocket bodies, and fragments generated from explosions, collisions, or faulty payload assembly.

Loading next visibility...
Identifier
18551, 1968-091DF
Orbit
LEO
Country
Flag of CISCIS
Related business
Manufacturer
Unknown
Mission
Spacecraft
Bus & Motor
Unknown
Mass
Unknown
Launch date (UTC)
1968-10-20 (58 years ago)
Launch vehicle
Unknown
Launch site
Tyuratam Missile And Space Complex (TTMTR)
Object type
Payload
Rocket body
Debris
Shape & HBR
Unknown shape, 0.1 m
Radar Cross Section
Medium (>0.1 m² and <1 m²)

Expand to show TLE details & history
Last TLE update: 22 hours ago

TLE from 22 hours ago
0 COSMOS 249 DEB
1 18551U 68091DF  26219.53379826  .00001484  00000-0  69119-3 0  9993
2 18551  62.2988   1.8288 0693392 202.4586 282.9056 13.40021283653418
Epoch: 2026-08-07T12:48Z
TLE epoch observation values (Epoch: 2026-08-07T12:48:40.169Z)
Latitude
51.88169°
Longitude
-8.13325°
Altitude
1,035.34 km
Speed
7.379 km/s
True Right ascension
09h 20m 22s
True Declination
51° 43' 15"
Sunlit
Object was in daylight at epoch
Visualization orbit readout
Latitude
Unknown
Longitude
Unknown
Altitude
Unknown
Speed
Unknown
Apparent Right ascension
Unknown
Apparent Declination
Unknown
Sunlit
N/A
Visualization observer readout
Local Sidereal Time
01:06:11
Azimuth
Unknown
Elevation
Unknown
Doppler factor
Unknown
Orbital elements
Apogee altitude
1,627.257 km
Perigee altitude
589.069 km
Semi-major axis
7,486.3 km
Eccentricity
0.06934
Inclination
62.2988°
RAAN
1.8288°
Arg. of periapsis
202.4586°
True anomaly
275.03277°
Mean anomaly
282.9056°
Eccentric anomaly
278.98147°
Mean motion
3.35075 °/min
Orbital period
107.44 mins
BSTAR
0.00069119
Loading maneuver chart data...
Computing Atmospheric mass density...

Documentation

Showing up to 5 results
|